Location: Newark
(45.9456°N, 15.4064°E)
Time: 08:08:41
(UTC+00:00)

SR - Pass Details

Date: 28 January 2020
Orbit: 575 x 881 km, 66.7° (Epoch: 18 February)

Event Time Altitude Azimuth Distance (km) Brightness Sun altitude
Rises 07:02:13 0° 309° (NW) 3,337 ? 4.7°
Reaches altitude 10° 07:06:36 10° 277° (W) 2,320 ? 5.3°
Maximum altitude 07:08:08 11° 260° (W) 2,201 ? 5.5°
Drops below altitude 10° 07:09:39 10° 243° (WSW) 2,255 ? 5.8°
Sets 07:13:44 0° 209° (SSW) 3,081 ? 6.3°
